Weather History for Ithaca, NY

Change the Weather History Date:

Sunday, June 23, 2013

  Actual Average Record
Temperature  
Mean Temperature 80 °F -  
Max Temperature 91 °F 77 °F 91 °F (1938)
Min Temperature 69 °F 53 °F 25 °F (1986)
Cooling Degree Days 15    
Growing Degree Days 30 (Base 50)    
Moisture  
Dew Point 66 °F    
Average Humidity 73    
Maximum Humidity 96    
Minimum Humidity 38    
Precipitation  
Precipitation 0.63 in - - ()
Sea Level Pressure  
Sea Level Pressure 30.09 in    
Wind  
Wind Speed 9 mph (SSW)    
Max Wind Speed 20 mph    
Max Gust Speed 32 mph    
Visibility 9 miles    
Events Rain , Thunderstorm    
Averages and records for this station are not official NWS values.
T = Trace of Precipitation, MM = Missing Value Source: NWS Daily Summary

Daily Weather History Graph

Daily Weather History Graph

Search for Another Location

Airport:

Trip Planner

Search our weather history database for the weather conditions in past years. The results will help you decide how hot, cold, wet, or windy it might be!

Date:

Astronomy

Jun. 23, 2013 Rise Set
Actual Time 5:29 AM EDT 8:47 PM EDT
Civil Twilight 4:54 AM EDT 9:21 PM EDT
Nautical Twilight 4:09 AM EDT 10:07 PM EDT
Astronomical Twilight 3:13 AM EDT 11:02 PM EDT
Moon 8:55 PM EDT 5:45 AM EDT
Length of Visible Light 16h 27m
Length of Day
15h 17m
Full, 100% of the Moon is Illuminated
Jun 23
Full
Jun 30
Last Quarter
Jul 8
New
Jul 15
First Quarter
Jul 22
Full

Hourly Weather History & Observations

Time (EDT) Temp. Heat Index Dew Point Humidity Pressure Visibility Wind Dir Wind Speed Gust Speed Precip Events Conditions
12:56 AM 72.9 °F - 63.9 °F 73% 30.12 in 10.0 mi South 9.2 mph - N/A   Clear
1:56 AM 73.9 °F - 63.9 °F 71% 30.11 in 10.0 mi South 9.2 mph - N/A   Clear
2:56 AM 73.9 °F - 63.9 °F 71% 30.10 in 10.0 mi South 8.1 mph - N/A   Partly Cloudy
3:56 AM 72.9 °F - 63.9 °F 73% 30.09 in 10.0 mi South 8.1 mph - N/A   Mostly Cloudy
4:56 AM 72.9 °F - 63.9 °F 73% 30.10 in 10.0 mi South 6.9 mph - N/A   Overcast
5:56 AM 72.0 °F - 63.9 °F 76% 30.11 in 10.0 mi SSW 5.8 mph - N/A   Scattered Clouds
6:24 AM 73.4 °F - 64.4 °F 73% 30.14 in 10.0 mi SSW 6.9 mph - N/A   Partly Cloudy
6:56 AM 72.9 °F - 63.9 °F 73% 30.12 in 10.0 mi South 5.8 mph - N/A   Clear
7:56 AM 75.9 °F - 64.9 °F 69% 30.13 in 10.0 mi SSW 5.8 mph - N/A   Clear
8:56 AM 79.0 °F - 66.9 °F 66% 30.13 in 10.0 mi SSW 9.2 mph - N/A   Clear
9:56 AM 81.9 °F 84.2 °F 66.9 °F 60% 30.12 in 10.0 mi SW 9.2 mph - N/A   Clear
10:56 AM 84.9 °F 88.2 °F 68.0 °F 57% 30.11 in 10.0 mi SSW 13.8 mph 19.6 mph N/A   Clear
11:56 AM 88.0 °F 90.7 °F 66.9 °F 49% 30.09 in 10.0 mi WSW 15.0 mph - N/A   Partly Cloudy
12:56 PM 90.0 °F 91.7 °F 64.9 °F 43% 30.08 in 10.0 mi SW 12.7 mph - N/A   Scattered Clouds
1:56 PM 90.9 °F 92.7 °F 64.9 °F 42% 30.05 in 10.0 mi SW 12.7 mph - N/A   Scattered Clouds
2:56 PM 91.9 °F 92.9 °F 63.0 °F 38% 30.04 in 10.0 mi SW 10.4 mph 17.3 mph N/A   Scattered Clouds
3:56 PM 82.9 °F 85.4 °F 66.9 °F 58% 30.06 in 10.0 mi North 19.6 mph 28.8 mph N/A   Mostly Cloudy
4:05 PM 78.8 °F - 66.2 °F 65% 30.08 in 10.0 mi North 18.4 mph 32.2 mph N/A   Overcast
4:56 PM 72.9 °F - 68.0 °F 85% 30.09 in 7.0 mi NW 10.4 mph - 0.00 in Rain , Thunderstorm Thunderstorms and Rain
5:18 PM 69.8 °F - 68.0 °F 94% 30.13 in 1.5 mi WNW 11.5 mph - 0.28 in Rain , Thunderstorm Heavy Thunderstorms and Rain
5:42 PM 69.8 °F - 66.2 °F 88% 30.10 in 3.0 mi ESE 4.6 mph - 0.55 in Rain , Thunderstorm Thunderstorms and Rain
5:56 PM 70.0 °F - 68.0 °F 93% 30.08 in 6.0 mi SSE 11.5 mph - 0.55 in Rain Light Rain
6:56 PM 70.0 °F - 68.9 °F 96% 30.07 in 6.0 mi SSE 5.8 mph - 0.07 in Rain Light Rain
7:56 PM 70.9 °F - 68.0 °F 91% 30.05 in 7.0 mi SE 4.6 mph - 0.01 in   Mostly Cloudy
8:56 PM 70.9 °F - 68.0 °F 91% 30.07 in 4.0 mi SW 3.5 mph - N/A   Scattered Clouds
9:56 PM 70.9 °F - 66.9 °F 87% 30.08 in 10.0 mi South 4.6 mph - N/A   Scattered Clouds
10:56 PM 70.0 °F - 66.9 °F 90% 30.09 in 8.0 mi South 4.6 mph - 0.00 in   Clear
11:56 PM 70.0 °F - 66.9 °F 90% 30.08 in 9.0 mi South 6.9 mph - 0.00 in   Clear